User: anonymous   Login
Location: Corcelles
(46.1547°N, 4.7234°E)
Time: 22:08:50
(UTC+00:00)
Language:

Cosmos 1733 Rocket - Orbit

View from above orbital plane
View from above orbital plane
View from above satellite
View from above satellite

Ground track
Ground track

The orbit data is extracted from the following two-line orbital elements,

1 16612U 86018B   20270.08536545  .00000075  00000-0  60732-5 0  9991
2 16612  82.5145 253.3788 0018207 157.6896 246.7663 14.84269644768990
Epoch (UTC): 26 September 2020 02:02:55
Eccentricity: 0.0018207
inclination: 82.5145°
perigee height: 603 km
apogee height: 628 km
right ascension of ascending node: 253.3788°
argument of perigee: 157.6896°
revolutions per day: 14.84269644
mean anomaly at epoch: 246.7663°
orbit number at epoch: 76899

The dashed part of the orbit path shows where the satellite is in the earth's shadow,  

DLR